This demonstration page uses our WeatherBlox Daily Observations layout. Learn more.

Left ArrowRight Arrow

Hourly Observations for March 28, 2020

Temp ( °F °C ) Dew Point ( °F °C ) Humidity (%) Winds ( mph kmh ) Pressure ( in mb ) Visibility ( mi km ) Precip ( " mm )
12:17 am 00:17 Cloudy with Nearby Thunderstorms 46 7.8 45 7.2 96 96 NW 3 6 29.72 1006 5 8.0467 0.01 0.254
12:35 am 00:35 Cloudy with Mist and Fog 46 7.8 44 6.7 93 93 NNE 6 9 29.68 1005 4 6.43736 0.01 0.254
12:42 am 00:42 Cloudy with Light Rain 46 7.8 44 6.7 93 93 NNE 3 6 29.69 1005 4 6.43736 0.01 0.254
12:54 am 00:54 Cloudy with Light Rain 46 7.8 44 6.7 93 93 NNW 9 15 29.66 1004 4 6.43736 0.01 0.254
1:19 am 01:19 Cloudy with Nearby Thunderstorms 46 7.8 44 6.7 93 93 NNW 10 17 29.67 1005 4 6.43736 0.02 0.508
1:27 am 01:27 Cloudy with Light Thunderstorms 46 7.8 44 6.7 93 93 NNW 8 13 29.67 1005 5 8.0467 0.04 1.016
1:34 am 01:34 Cloudy with Light Thunderstorms 46 7.8 44 6.7 93 93 N 8 13 29.66 1004 6 9.65604 0.05 1.27
1:39 am 01:39 Cloudy with Mist and Fog 46 7.8 44 6.7 93 93 NW 7 11 29.67 1005 6 9.65604 0.05 1.27
1:54 am 01:54 Cloudy with Mist and Fog 46 7.8 44 6.7 93 93 N 7 11 29.64 1004 6 9.65604 0.05 1.27
2:39 am 02:39 Cloudy with Mist and Fog 46 7.8 44 6.7 93 93 ENE 3 6 29.64 1004 5 8.0467 0.01 0.254
2:54 am 02:54 Cloudy with Mist and Fog 46 7.8 44 6.7 93 93 Calm 29.62 1003 6 9.65604 0.01 0.254
3:18 am 03:18 Cloudy 46 7.8 44 6.7 93 93 Calm 29.65 1004 7 11.26538 0 0
3:54 am 03:54 Cloudy 46 7.8 44 6.7 93 93 WNW 5 7 29.64 1004 7 11.26538 0 0
4:54 am 04:54 Cloudy with Mist and Fog 46 7.8 44 6.7 93 93 NNE 6 9 29.57 1002 5 8.0467 0 0
5:26 am 05:26 Cloudy with Mist and Fog 46 7.8 44 6.7 93 93 ENE 8 13 29.59 1002 1.75 2.816345 0 0
5:41 am 05:41 Cloudy with Mist and Fog 46 7.8 44 6.7 93 93 ENE 5 7 29.59 1002 2.5 4.02335 0 0
5:54 am 05:54 Cloudy with Mist and Fog 46 7.8 44 6.7 93 93 ENE 7 11 29.57 1001 3 4.82802 0 0
6:11 am 06:11 Cloudy with Mist and Fog 46 7.8 44 6.7 93 93 ENE 7 11 29.58 1002 1.75 2.816345 0 0
6:54 am 06:54 Cloudy with Mist and Fog 46 7.8 44 6.7 93 93 ENE 7 11 29.54 1001 1.5 2.41401 0 0
7:05 am 07:05 Cloudy with Mist and Fog 46 7.8 44 6.7 93 93 ENE 9 15 29.55 1001 2.5 4.02335 0 0
7:19 am 07:19 Cloudy with Fog 46 7.8 44 6.7 93 93 E 7 11 29.56 1001 0.25 0.402335 0 0
7:54 am 07:54 Cloudy with Mist and Fog 46 7.8 45 7.2 96 96 E 9 15 29.55 1001 1.5 2.41401 0 0
8:54 am 08:54 Cloudy with Mist and Fog 47 8.3 44 6.7 90 90 ENE 9 15 29.51 999 1.5 2.41401 0 0
9:01 am 09:01 Cloudy with Light Rain 47 8.3 44 6.7 90 90 E 13 20 29.52 1000 4 6.43736 0.001 0.001
9:54 am 09:54 Cloudy with Mist and Fog 47 8.3 45 7.2 93 93 ENE 12 19 29.46 998 4 6.43736 0.001 0.001
10:09 am 10:09 Cloudy with Light Rain 47 8.3 45 7.2 93 93 ENE 10 17 29.47 998 1.75 2.816345 0.001 0.001
10:54 am 10:54 Cloudy with Light Rain 48 8.9 46 7.8 93 93 ENE 8 13 29.42 996 2 3.21868 0.01 0.254
11:08 am 11:08 Cloudy with Mist and Fog 48 8.9 46 7.8 93 93 ENE 8 13 29.42 996 1.75 2.816345 0.001 0.001
11:54 am 11:54 Cloudy with Mist and Fog 50 10 48 8.9 93 93 Calm 29.38 995 2 3.21868 0.01 0.254
12:10 pm 12:10 Cloudy with Mist and Fog 50 10 48 8.9 93 93 NE 3 6 29.38 995 1.5 2.41401 0 0
12:30 pm 12:30 Cloudy with Light Rain 50 10 48 8.9 93 93 E 5 7 29.37 995 3 4.82802 0.001 0.001
12:54 pm 12:54 Cloudy with Light Rain 51 10.6 49 9.4 92 92 SSE 3 6 29.35 994 3 4.82802 0.01 0.254
1:11 pm 13:11 Cloudy with Light Rain 53 11.7 50 10 89 89 SSW 5 7 29.34 994 7 11.26538 0.001 0.001
1:47 pm 13:47 Mostly Cloudy 55 12.8 51 10.6 87 87 SW 13 20 29.33 993 10 16.0934 0.001 0.001
1:54 pm 13:54 Cloudy 55 12.8 50 10 83 83 SW 16 26 29.33 993 10 16.0934 0.001 0.001
2:06 pm 14:06 Cloudy with Light Rain 54 12.2 50 10 87 87 WSW 16 26 29.34 994 6 9.65604 0.001 0.001
2:11 pm 14:11 Cloudy with Light Rain 54 12.2 50 10 87 87 WSW 17 28 29.34 994 8 12.87472 0.001 0.001
2:54 pm 14:54 Mostly Cloudy with Light Rain 55 12.8 48 8.9 77 77 W 18 30 29.33 993 10 16.0934 0.001 0.001
3:03 pm 15:03 Mostly Cloudy 55 12.8 48 8.9 77 77 W 22 35 29.34 994 10 16.0934 0.001 0.001
3:16 pm 15:16 Mostly Cloudy 55 12.8 47 8.3 74 74 W 21 33 29.34 994 10 16.0934 0.001 0.001
3:54 pm 15:54 Mostly Cloudy 52 11.1 45 7.2 77 77 WNW 23 37 29.36 994 10 16.0934 0.001 0.001
4:03 pm 16:03 Cloudy 52 11.1 44 6.7 75 75 WNW 22 35 29.38 995 10 16.0934 0 0
4:11 pm 16:11 Cloudy 52 11.1 43 6.1 72 72 NW 21 33 29.39 995 10 16.0934 0 0
4:37 pm 16:37 Cloudy 52 11.1 43 6.1 72 72 NW 21 33 29.41 996 10 16.0934 0 0
4:54 pm 16:54 Cloudy 50 10 40 4.4 68 68 NW 26 43 29.42 996 10 16.0934 0 0
5:54 pm 17:54 Cloudy 46 7.8 37 2.8 71 71 NW 22 35 29.48 998 10 16.0934 0 0
6:34 pm 18:34 Cloudy 44 6.7 36 2.2 73 73 NW 22 35 29.56 1001 10 16.0934 0 0
6:54 pm 18:54 Cloudy 43 6.1 35 1.7 74 74 NW 24 39 29.55 1001 10 16.0934 0 0
7:02 pm 19:02 Cloudy 43 6.1 36 2.2 76 76 NW 28 44 29.58 1002 10 16.0934 0 0
7:54 pm 19:54 Cloudy with Light Rain 42 5.6 36 2.2 79 79 NW 20 31 29.6 1002 10 16.0934 0.001 0.001
8:54 pm 20:54 Cloudy with Light Rain 43 6.1 37 2.8 80 80 NW 17 28 29.63 1004 8 12.87472 0.001 0.001
9:09 pm 21:09 Cloudy with Light Rain 43 6.1 38 3.3 82 82 NW 25 41 29.67 1005 6 9.65604 0.001 0.001
9:45 pm 21:45 Cloudy 43 6.1 36 2.2 76 76 NW 22 35 29.69 1005 10 16.0934 0.001 0.001
9:54 pm 21:54 Cloudy 43 6.1 36 2.2 76 76 NW 24 39 29.67 1005 10 16.0934 0.001 0.001
10:54 pm 22:54 Cloudy 43 6.1 35 1.7 74 74 NW 23 37 29.7 1006 10 16.0934 0 0
11:31 pm 23:31 Cloudy 44 6.7 35 1.7 71 71 WNW 17 28 29.75 1007 10 16.0934 0 0
11:54 pm 23:54 Cloudy 43 6.1 34 1.1 71 71 WNW 18 30 29.73 1007 10 16.0934 0 0

Powered by AerisWeather